Track GOSAT (IBUKI) now! 10-day predictions GOSAT (IBUKI) is classified as:
1 33492U 09002A 25019.86627560 .00002118 00000-0 38178-3 0 9991 2 33492 98.0515 133.5457 0001021 98.8343 261.2977 14.67554412856639